SCP
-0 -0 -0 -0 -0 -0 -0 -0 -0 -0 -0 -0 -0 -0 -0 -0 -0 -0 -0 -0 -0 -0 0 0 0 0 0 0 0 0 0 0 0 0 0 0 0 0 0 0 0 0 0 0 0 0 0
0 -0 -0 -0 -0 -0 -0 -0 -0 -0 -0 -0 -0 -0 -0 -0 -0 -0 -0 -0 -0 -0 0 0 0 0 0 0 0 0 0 0 0 0 0 0 0 0 0 0 0 0 0 0 0 0 0
0 -0 -0 -0 -0 -0 -0 -0 -0 -0 -0 -0 -0 -0 -0 -0 -0 -0 -0 -0 -0 -0 -0 -0 0 0 0 0 0 0 0 0 0 0 0 0 0 0 0 0 0 0 0 0 0 0 0
-0 -0 -0 -0 -0 -0 -0 -0 -0 -0 -0 -0 -0 -0 -0 -0 -0 -0 -0 -0 -0 -0 -0 -0 0 0 0 0 -0 0 0 0 0 0 0 0 0 0 0 0 0 0 0 0 0 0 0
0 -0 -0 -0 -0 -0 -0 -0 -0 -0 -0 -0 -0 -0 -0 -0 -0 -0 -0 -0 -0 0 -0 0 0 0 0 0 0 0 0 0 0 0 0 0 0 0 0 0 0 0 0 0 0 0 0
0 0 -0 -0 -0 -0 -0 -0 -0 -0 -0 -0 -0 -0 -0 -0 -0 -0 -0 0 -0 -0 -0 -0 0 0 0 0 0 -0 0 0 0 0 0 0 0 0 0 0 0 0 0 0 0 0 0
0 -0 -0 -0 -0 -0 -0 -0 -0 -0 -0 -0 -0 -0 -0 -0 -0 -0 -0 -0 0 0 0 -0 -0 -0 0 0 -0 0 0 0 0 0 0 0 0 0 0 0 0 0 0 0 0 0 0
0 0 -0 -0 -0 -0 -0 -0 -0 -0 -0 -0 -0 -0 -0 -0 -0 -0 0 0 0 -0 -0 -0 -0 -0 -0 -0 0 -0 0 0 0 0 0 0 0 0 0 0 0 0 0 0 0 0 0
-0 -0 -0 -0 -0 -0 -0 -0 -0 -0 -0 -0 -0 -0 -0 -0 -0 0 0 0 0 0 0 -0 -0 -0 -0 -0 -0 0 0 0 0 0 0 0 0 0 0 0 0 0 0 0 0 0 0
-0 -0 -0 -0 -0 -0 -0 -0 -0 -0 -0 -0 -0 -0 -0 -0 0 0 0 0 -0 -0 0 0 -0 -0 -0 -0 0 -0 -0 0 0 0 0 0 0 0 0 0 0 0 0 0 0 0 0
-0 -0 -0 -0 -0 -0 -0 -0 -0 -0 -0 -0 -0 -0 -0 -0 0 0 0 0 -0 -0 0 0 0 -0 -0 0 -0 0 -0 0 0 0 0 0 0 0 0 0 0 0 0 0 0 0 0
-0 -0 -0 -0 -0 -0 -0 -0 -0 -0 -0 -0 -0 -0 -0 0 0 -0 0 -0 -0 0 0 0 0 0 0 0 -0 0 -0 0 -0 0 0 0 0 0 0 0 0 0 0 0 0 0 0
-0 -0 -0 -0 -0 -0 -0 -0 -0 -0 -0 -0 -0 -0 -0 -0 0 -0 -0 -0 0 0 0 0 0 0 0 0 0 0 0 0 0 0 0 0 0 0 0 0 0 0 0 0 0 0 0
0 -0 -0 -0 -0 -0 -0 -0 -0 -0 -0 -0 -0 -0 -0 -0 0 -0 -0 0 0 0 0 0 0 0 0 0 0 0 0 0 0 0 0 0 0 0 0 0 0 0 0 0 0 0 0
-0 -0 -0 -0 -0 -0 -0 -0 -0 -0 -0 -0 -0 -0 0 0 -0 -0 0 0 0 0 0 0 0 0 0 0 0 0 0 0 0 0 0 0 0 0 0 0 0 0 0 0 0 0 0
-0 -0 -0 -0 -0 -0 -0 -0 -0 -0 -0 -0 0 0 -0 0 0 0 0 0 0 0 0 0 0 0 0 0 0 0 0 0 0 0 0 0 0 0 0 0 0 0 0 0 0 0 0
0 0 0 0 0 -0 -0 -0 -0 -0 -0 -0 0 0 0 0 0 0 0 0 0 0 0 0 0 0 0 0 0 0 0 0 0 0 0 0 0 0 0 0 0 0 0 0 0 0 0
0 0 -0 0 -0 0 -0 -0 -0 -0 -0 0 0 0 0 0 0 0 0 0 0 0 0 0 0 0 0 0 0 0 0 0 0 0 0 0 0 0 0 0 0 0 0 0 0 0 0
0 0 -0 0 0 0 -0 -0 -0 -0 -0 0 0 0 -0 0 0 0 0 0 0 0 0 0 0 0 0 0 0 0 0 0 0 0 0 0 0 0 0 0 0 0 0 0 0 0 0
0 0 0 0 0 0 0 -0 -0 -0 -0 0 0 0 0 0 0 0 0 0 0 0 0 0 0 0 0 0 0 0 0 0 0 0 0 0 0 0 0 0 0 0 0 0 0 0 0
0 0 0 0 0 0 0 0 -0 -0 -0 0 0 0 0 0 0 0 0 0 0 0 0 0 0 0 0 0 0 0 0 0 0 0 0 0 0 0 0 0 0 0 0 0 0 0 0
0 0 0 0 0 0 0 -0 -0 -0 -0 -0 0 0 0 0 0 0 0 0 0 0 0 0 0 0 0 0 0 0 0 0 0 0 0 0 0 0 0 0 0 0 0 0 0 0 0
0 0 0 0 0 0 -0 -0 -0 -0 0 -0 -0 -0 0 0 0 0 0 0 0 0 0 0 0 0 0 0 0 0 0 0 0 0 0 0 0 0 0 0 0 0 0 0 0 0 0
0 0 0 0 0 0 -0 -0 -0 -0 0 -0 -0 0 0 0 0 0 0 0 0 0 0 0 0 0 0 0 0 0 0 0 0 0 0 0 0 0 0 0 0 0 0 0 0 0 0
0 0 0 0 0 0 0 -0 -0 -0 0 -0 -0 0 0 0 0 0 0 0 0 0 0 0 0 0 0 0 0 0 0 0 0 0 0 0 0 0 0 0 0 0 0 0 0 -0 0
0 0 0 0 0 0 0 0 0 0 0 0 0 0 0 0 0 0 0 0 0 0 0 0 0 0 0 0 0 0 0 0 0 0 0 0 0 0 0 0 0 0 0 0 0 0 0
0 0 0 0 0 0 0 0 0 0 0 0 0 0 0 0 0 0 0 0 0 0 0 0 0 0 0 0 0 0 0 0 0 0 0 0 0 0 0 0 0 0 0 0 0 0 0
0 0 0 0 0 0 0 0 0 0 0 0 0 0 0 0 0 0 0 0 0 0 0 0 0 0 0 0 0 0 0 0 0 0 0 0 0 0 0 0 0 0 0 0 0 0 0
0 0 0 0 0 0 0 0 0 0 0 0 0 0 0 0 0 0 0 0 0 0 0 0 0 0 0 0 0 0 0 0 0 0 0 0 0 0 0 0 0 0 0 0 0 0 0
Wind_Speed_500mb
64 61 58 55 52 51 50 48 46 45 41 35 25 23 25 24 23 18 11 10 9 14 20 23 17 8 5 7 17 18 15 14 17 23 15 15 15 5 4 1 3 3 7 13 14 10 10
67 65 62 58 55 53 52 50 47 45 42 38 27 22 23 23 21 18 13 11 15 24 30 22 11 8 10 14 16 10 10 12 12 13 19 16 7 4 6 5 5 4 13 19 13 11 10
66 66 64 62 59 56 54 53 50 47 42 38 29 20 20 20 19 18 15 18 27 31 25 15 10 8 12 11 10 7 8 11 13 5 7 12 14 11 1 4 5 3 8 11 11 19 6
67 67 65 63 61 60 57 54 53 49 43 38 28 18 16 17 18 21 23 27 27 23 17 13 10 9 6 14 8 4 5 3 8 1 4 5 12 8 3 4 9 8 10 3 8 22 11
68 68 68 65 62 61 60 57 54 52 46 37 26 13 11 15 17 19 18 21 19 13 11 13 7 8 5 7 2 0 5 6 4 4 3 8 4 5 3 8 9 12 3 1 7 8 7
72 71 70 68 65 62 61 60 58 54 49 37 23 9 6 13 15 13 11 11 9 10 13 7 9 6 3 2 2 3 5 5 1 3 3 4 6 6 8 9 8 5 1 4 1 12 12
74 74 73 70 67 64 62 62 61 58 52 36 21 7 7 13 16 13 7 3 6 4 9 4 7 4 2 2 3 4 11 5 3 8 7 8 10 3 8 9 2 6 3 3 3 1 9
75 75 75 73 69 66 63 63 63 60 54 36 21 7 7 13 10 13 23 11 12 8 10 3 2 6 1 2 2 7 13 4 8 6 5 10 0 4 6 8 4 5 4 6 8 6 2
73 77 77 75 71 67 65 63 64 62 53 36 19 10 12 15 13 9 12 16 14 8 1 7 1 4 2 3 3 6 12 6 8 7 8 5 7 6 8 5 6 2 5 2 7 11 4
70 75 78 78 74 69 65 63 63 62 51 36 16 11 15 16 12 10 8 10 5 6 8 8 4 3 5 2 6 3 9 6 8 4 4 4 9 9 8 1 6 2 6 2 7 7 4
66 72 75 78 77 73 66 63 61 59 48 33 15 10 10 3 7 5 5 9 1 4 8 2 2 1 2 4 3 9 5 7 4 5 11 9 9 9 8 2 5 7 4 4 3 5 4
62 69 73 77 78 75 69 64 61 58 40 28 15 12 8 4 5 13 11 2 3 10 6 7 3 7 4 2 2 5 3 5 3 7 8 6 8 5 2 5 5 3 2 10 8 5 3
61 66 70 75 78 76 72 65 61 57 34 18 22 15 11 10 11 10 5 6 9 10 8 13 6 10 4 8 7 7 8 11 6 9 11 12 5 4 11 7 8 15 13 8 10 9 10
59 63 68 72 77 77 72 67 60 56 37 5 11 18 15 14 15 6 2 9 13 3 4 5 8 7 10 13 10 14 5 7 13 10 6 8 12 10 14 5 3 5 9 9 8 5 9
57 58 66 72 75 75 72 68 60 56 47 5 4 14 21 15 15 14 2 11 8 3 4 8 5 12 12 11 9 8 8 3 5 6 7 8 8 7 3 4 4 1 3 4 6 4 4
54 57 63 69 71 74 70 68 62 55 48 13 4 3 32 21 20 13 10 4 0 4 4 8 6 5 8 13 9 11 9 7 4 8 4 5 8 4 9 9 7 5 7 3 6 4 10
51 54 61 64 67 73 69 65 63 55 48 22 6 0 30 17 13 12 8 2 5 7 4 6 3 5 4 4 1 5 5 9 7 7 11 5 6 10 6 3 9 6 6 10 5 8 8
48 53 58 62 66 70 69 62 59 58 49 29 8 6 31 15 11 6 4 6 16 5 15 9 9 7 3 3 3 4 3 7 14 9 6 4 7 7 17 15 5 6 8 10 9 8 6
44 50 59 58 64 69 66 60 55 53 50 38 9 9 20 9 7 6 10 7 15 13 10 8 7 7 6 4 6 4 6 8 25 6 3 4 3 8 18 10 5 6 5 6 6 6 9
42 46 50 56 63 68 65 59 52 50 42 28 10 7 17 26 13 6 6 8 7 18 11 13 7 10 9 7 9 3 8 3 33 8 11 7 4 13 14 13 3 10 14 14 8 8 25
42 45 46 55 60 65 64 60 52 48 38 21 13 6 7 6 11 9 3 4 7 11 15 23 7 8 5 2 8 2 3 10 11 11 6 5 10 10 14 15 15 27 29 33 34 36 16
41 44 44 51 55 60 63 60 54 49 37 28 10 8 6 5 8 4 10 8 7 8 9 7 6 6 5 7 13 7 5 7 12 9 6 3 8 5 10 23 21 22 33 39 30 28 26
36 42 44 50 51 56 59 57 53 49 43 22 17 13 5 10 7 5 1 3 4 6 5 9 2 4 3 5 13 28 32 20 16 6 3 2 3 5 8 8 16 12 12 7 1 9 11
39 41 42 45 48 52 53 51 47 45 42 32 25 15 7 3 4 2 6 5 5 6 5 4 5 3 2 22 30 24 9 9 3 5 17 7 3 4 8 10 4 9 4 10 7 22 15
38 41 42 44 45 46 48 45 39 35 33 27 24 14 7 2 4 6 2 5 12 12 4 4 5 9 20 14 6 9 9 4 8 7 8 7 7 4 1 6 19 9 7 2 3 43 15
41 35 43 44 42 42 44 41 36 30 27 21 18 15 8 2 7 2 3 4 3 4 11 4 6 12 9 7 6 3 3 5 8 9 8 9 9 7 2 4 10 9 3 36 18 24 24
45 40 42 42 42 41 40 38 32 27 24 18 15 15 9 8 6 11 7 4 3 2 3 8 12 7 11 5 5 3 4 1 4 5 5 9 6 6 3 9 14 9 18 22 5 11 59
47 48 45 40 42 41 36 33 29 25 21 19 18 16 13 10 22 23 22 17 10 8 6 2 6 4 7 7 4 3 2 4 3 7 5 6 3 5 1 5 15 13 24 5 20 68 66
49 49 44 39 40 38 33 30 27 24 22 18 15 20 20 17 19 32 35 31 34 39 18 6 3 6 9 7 1 4 4 0 5 6 1 5 11 5 13 12 15 53 30 47 55 51 60
Wind_Direction_500mb
24 22 22 21 19 17 16 14 10 5 5 6 4 3 4 8 7 12 41 60 88 115 128 128 122 98 84 98 100 100 89 83 72 62 88 106 77 114 144 232 357 148 287 310 303 293 216
22 20 19 18 17 15 13 12 11 6 2 3 3 3 7 13 20 31 47 71 108 121 126 124 103 73 85 77 106 78 54 47 53 72 75 67 53 61 155 209 137 259 280 300 302 311 239
19 18 17 15 14 13 12 9 9 7 2 1 3 2 13 23 35 39 58 96 114 119 117 107 81 84 111 114 104 75 37 53 32 70 53 32 19 2 187 345 328 294 310 340 21 338 34
17 16 16 16 14 12 10 9 6 5 3 359 1 3 21 42 53 66 85 103 107 105 95 56 49 89 91 143 127 67 31 304 4 191 333 346 343 354 216 296 16 49 50 62 344 11 8
16 15 15 14 14 12 9 7 6 2 3 359 359 9 36 66 84 80 86 98 93 73 26 6 34 44 88 162 267 33 353 16 223 205 294 295 293 49 66 75 18 9 165 256 344 59 345
17 15 14 13 12 11 10 6 4 2 1 1 1 13 83 101 103 74 82 77 31 357 354 25 52 90 153 85 8 82 352 326 359 331 189 62 61 59 36 70 197 209 11 274 183 330 360
14 14 14 12 11 10 10 7 4 2 2 5 6 23 143 133 119 65 57 32 349 347 338 329 322 295 37 163 181 293 339 334 118 81 59 25 64 227 220 192 165 130 122 318 312 149 3
15 13 13 10 10 9 10 9 5 3 3 9 15 48 139 164 136 96 70 73 49 344 318 354 297 266 333 145 302 293 330 71 66 76 359 21 265 239 188 151 137 79 101 314 293 293 4
13 13 12 9 8 9 8 9 6 5 5 11 24 81 110 116 141 118 75 41 13 321 349 313 234 284 199 185 314 350 8 66 82 54 35 132 281 343 90 87 95 83 140 266 240 335 346
8 9 10 8 7 7 8 10 8 6 5 10 34 111 119 110 98 103 87 14 358 14 68 304 352 25 182 196 17 0 26 55 36 55 97 243 321 75 57 44 109 316 199 211 277 48 255
5 7 7 7 6 5 5 9 9 9 5 12 41 113 133 140 112 68 343 341 200 311 72 286 338 97 141 86 330 14 42 26 88 14 69 287 346 7 19 0 135 210 66 24 331 199 84
3 4 6 6 5 4 4 8 9 11 11 21 54 89 97 69 340 329 305 214 168 45 57 5 42 8 56 0 318 72 52 47 47 87 14 281 302 36 340 61 64 71 37 49 58 93 23
0 2 4 5 5 3 2 4 11 9 16 55 64 58 46 18 357 0 107 155 43 84 326 333 343 0 14 359 10 33 36 15 47 24 0 341 6 333 37 35 22 52 46 335 345 7 230
357 359 1 2 2 2 0 360 8 7 12 63 48 34 29 17 8 25 350 59 72 275 337 335 14 23 78 0 18 7 69 36 28 68 63 41 338 12 338 73 290 31 140 155 262 248 268
353 356 357 358 359 0 359 358 2 9 3 25 57 46 27 12 6 359 310 58 177 206 279 0 47 56 358 2 57 54 47 66 48 51 102 32 292 323 25 339 85 231 227 187 123 20 18
351 353 356 357 358 359 359 357 357 6 2 4 341 244 9 360 352 8 75 138 354 255 54 50 82 34 45 352 42 34 20 338 42 62 87 193 318 319 301 8 37 167 158 26 9 285 264
348 350 353 356 356 357 360 357 354 0 6 358 357 337 359 1 10 51 101 238 323 20 42 60 114 82 100 41 15 0 0 13 21 8 46 112 129 287 349 319 249 322 322 58 122 148 213
343 345 348 354 356 356 357 358 357 358 4 13 29 44 3 5 46 37 65 346 356 331 38 57 78 77 72 57 18 349 65 59 40 5 37 340 153 254 238 264 289 190 191 135 127 260 212
337 344 347 351 356 357 356 359 360 0 3 5 13 344 8 17 83 4 331 5 44 29 27 32 56 51 18 46 54 5 31 116 40 72 44 209 289 327 332 354 3 77 161 136 109 67 204
333 339 352 353 355 356 356 359 2 3 5 6 10 24 25 56 54 86 21 353 30 27 51 55 74 64 60 32 6 336 338 315 338 302 317 162 160 191 238 228 293 301 303 286 202 255 278
331 334 349 352 354 356 357 358 3 8 9 12 37 59 22 351 4 30 37 2 22 11 11 36 46 58 81 86 335 319 262 325 306 318 99 100 242 217 251 254 247 265 275 268 252 254 242
327 333 343 350 352 356 357 356 1 10 16 36 47 33 18 27 335 45 9 8 23 348 21 358 67 342 177 177 184 244 230 202 242 343 67 358 261 295 270 259 261 264 258 261 266 268 268
322 327 336 348 349 352 353 353 357 7 18 41 33 22 11 1 3 72 335 322 3 334 57 69 332 113 121 207 267 278 277 264 257 260 258 135 94 47 271 357 306 293 240 207 152 225 258
317 319 326 338 342 345 348 350 354 1 8 23 23 12 8 313 49 103 327 327 354 339 273 335 28 118 265 313 298 283 296 309 180 289 194 136 103 108 281 353 299 245 156 164 230 277 258
301 308 319 322 331 336 342 345 349 355 357 1 15 19 18 312 265 313 341 317 320 308 275 280 24 338 316 313 14 0 351 17 11 37 141 66 107 340 159 287 283 292 125 62 204 304 309
289 296 302 310 322 327 335 338 341 348 348 349 360 9 355 351 242 221 298 284 268 314 337 251 297 327 336 75 64 85 287 324 325 346 131 75 67 120 72 270 257 237 143 333 306 296 358
277 277 291 305 309 316 327 330 333 337 336 339 335 339 340 294 249 233 226 245 229 149 233 306 343 349 12 62 77 131 275 308 292 282 314 331 348 172 213 245 273 251 328 330 53 285 315
265 275 278 288 293 305 314 320 325 328 325 326 320 316 324 281 282 260 250 221 204 188 148 295 5 323 41 65 110 238 168 279 338 258 220 202 153 242 340 271 281 15 356 3 287 304 302
258 264 268 281 288 292 303 311 315 317 314 317 316 310 307 282 272 280 270 251 255 270 247 220 220 213 182 94 209 104 222 85 160 275 21 279 188 213 190 231 262 302 308 312 316 303 317
Wind_Speed_850mb
64 61 58 55 52 51 50 48 46 45 41 35 25 23 25 24 23 18 11 10 9 14 20 23 17 8 5 7 17 18 15 14 17 23 15 15 15 5 4 1 3 3 7 13 14 10 10
67 65 62 58 55 53 52 50 47 45 42 38 27 22 23 23 21 18 13 11 15 24 30 22 11 8 10 14 16 10 10 12 12 13 19 16 7 4 6 5 5 4 13 19 13 11 10
66 66 64 62 59 56 54 53 50 47 42 38 29 20 20 20 19 18 15 18 27 31 25 15 10 8 12 11 10 7 8 11 13 5 7 12 14 11 1 4 5 3 8 11 11 19 6
67 67 65 63 61 60 57 54 53 49 43 38 28 18 16 17 18 21 23 27 27 23 17 13 10 9 6 14 8 4 5 3 8 1 4 5 12 8 3 4 9 8 10 3 8 22 11
68 68 68 65 62 61 60 57 54 52 46 37 26 13 11 15 17 19 18 21 19 13 11 13 7 8 5 7 2 0 5 6 4 4 3 8 4 5 3 8 9 12 3 1 7 8 7
72 71 70 68 65 62 61 60 58 54 49 37 23 9 6 13 15 13 11 11 9 10 13 7 9 6 3 2 2 3 5 5 1 3 3 4 6 6 8 9 8 5 1 4 1 12 12
74 74 73 70 67 64 62 62 61 58 52 36 21 7 7 13 16 13 7 3 6 4 9 4 7 4 2 2 3 4 11 5 3 8 7 8 10 3 8 9 2 6 3 3 3 1 9
75 75 75 73 69 66 63 63 63 60 54 36 21 7 7 13 10 13 23 11 12 8 10 3 2 6 1 2 2 7 13 4 8 6 5 10 0 4 6 8 4 5 4 6 8 6 2
73 77 77 75 71 67 65 63 64 62 53 36 19 10 12 15 13 9 12 16 14 8 1 7 1 4 2 3 3 6 12 6 8 7 8 5 7 6 8 5 6 2 5 2 7 11 4
70 75 78 78 74 69 65 63 63 62 51 36 16 11 15 16 12 10 8 10 5 6 8 8 4 3 5 2 6 3 9 6 8 4 4 4 9 9 8 1 6 2 6 2 7 7 4
66 72 75 78 77 73 66 63 61 59 48 33 15 10 10 3 7 5 5 9 1 4 8 2 2 1 2 4 3 9 5 7 4 5 11 9 9 9 8 2 5 7 4 4 3 5 4
62 69 73 77 78 75 69 64 61 58 40 28 15 12 8 4 5 13 11 2 3 10 6 7 3 7 4 2 2 5 3 5 3 7 8 6 8 5 2 5 5 3 2 10 8 5 3
61 66 70 75 78 76 72 65 61 57 34 18 22 15 11 10 11 10 5 6 9 10 8 13 6 10 4 8 7 7 8 11 6 9 11 12 5 4 11 7 8 15 13 8 10 9 10
59 63 68 72 77 77 72 67 60 56 37 5 11 18 15 14 15 6 2 9 13 3 4 5 8 7 10 13 10 14 5 7 13 10 6 8 12 10 14 5 3 5 9 9 8 5 9
57 58 66 72 75 75 72 68 60 56 47 5 4 14 21 15 15 14 2 11 8 3 4 8 5 12 12 11 9 8 8 3 5 6 7 8 8 7 3 4 4 1 3 4 6 4 4
54 57 63 69 71 74 70 68 62 55 48 13 4 3 32 21 20 13 10 4 0 4 4 8 6 5 8 13 9 11 9 7 4 8 4 5 8 4 9 9 7 5 7 3 6 4 10
51 54 61 64 67 73 69 65 63 55 48 22 6 0 30 17 13 12 8 2 5 7 4 6 3 5 4 4 1 5 5 9 7 7 11 5 6 10 6 3 9 6 6 10 5 8 8
48 53 58 62 66 70 69 62 59 58 49 29 8 6 31 15 11 6 4 6 16 5 15 9 9 7 3 3 3 4 3 7 14 9 6 4 7 7 17 15 5 6 8 10 9 8 6
44 50 59 58 64 69 66 60 55 53 50 38 9 9 20 9 7 6 10 7 15 13 10 8 7 7 6 4 6 4 6 8 25 6 3 4 3 8 18 10 5 6 5 6 6 6 9
42 46 50 56 63 68 65 59 52 50 42 28 10 7 17 26 13 6 6 8 7 18 11 13 7 10 9 7 9 3 8 3 33 8 11 7 4 13 14 13 3 10 14 14 8 8 25
42 45 46 55 60 65 64 60 52 48 38 21 13 6 7 6 11 9 3 4 7 11 15 23 7 8 5 2 8 2 3 10 11 11 6 5 10 10 14 15 15 27 29 33 34 36 16
41 44 44 51 55 60 63 60 54 49 37 28 10 8 6 5 8 4 10 8 7 8 9 7 6 6 5 7 13 7 5 7 12 9 6 3 8 5 10 23 21 22 33 39 30 28 26
36 42 44 50 51 56 59 57 53 49 43 22 17 13 5 10 7 5 1 3 4 6 5 9 2 4 3 5 13 28 32 20 16 6 3 2 3 5 8 8 16 12 12 7 1 9 11
39 41 42 45 48 52 53 51 47 45 42 32 25 15 7 3 4 2 6 5 5 6 5 4 5 3 2 22 30 24 9 9 3 5 17 7 3 4 8 10 4 9 4 10 7 22 15
38 41 42 44 45 46 48 45 39 35 33 27 24 14 7 2 4 6 2 5 12 12 4 4 5 9 20 14 6 9 9 4 8 7 8 7 7 4 1 6 19 9 7 2 3 43 15
41 35 43 44 42 42 44 41 36 30 27 21 18 15 8 2 7 2 3 4 3 4 11 4 6 12 9 7 6 3 3 5 8 9 8 9 9 7 2 4 10 9 3 36 18 24 24
45 40 42 42 42 41 40 38 32 27 24 18 15 15 9 8 6 11 7 4 3 2 3 8 12 7 11 5 5 3 4 1 4 5 5 9 6 6 3 9 14 9 18 22 5 11 59
47 48 45 40 42 41 36 33 29 25 21 19 18 16 13 10 22 23 22 17 10 8 6 2 6 4 7 7 4 3 2 4 3 7 5 6 3 5 1 5 15 13 24 5 20 68 66
49 49 44 39 40 38 33 30 27 24 22 18 15 20 20 17 19 32 35 31 34 39 18 6 3 6 9 7 1 4 4 0 5 6 1 5 11 5 13 12 15 53 30 47 55 51 60
Wind_Direction_850mb
24 22 22 21 19 17 16 14 10 5 5 6 4 3 4 8 7 12 41 60 88 115 128 128 122 98 84 98 100 100 89 83 72 62 88 106 77 114 144 232 357 148 287 310 303 293 216
22 20 19 18 17 15 13 12 11 6 2 3 3 3 7 13 20 31 47 71 108 121 126 124 103 73 85 77 106 78 54 47 53 72 75 67 53 61 155 209 137 259 280 300 302 311 239
19 18 17 15 14 13 12 9 9 7 2 1 3 2 13 23 35 39 58 96 114 119 117 107 81 84 111 114 104 75 37 53 32 70 53 32 19 2 187 345 328 294 310 340 21 338 34
17 16 16 16 14 12 10 9 6 5 3 359 1 3 21 42 53 66 85 103 107 105 95 56 49 89 91 143 127 67 31 304 4 191 333 346 343 354 216 296 16 49 50 62 344 11 8
16 15 15 14 14 12 9 7 6 2 3 359 359 9 36 66 84 80 86 98 93 73 26 6 34 44 88 162 267 33 353 16 223 205 294 295 293 49 66 75 18 9 165 256 344 59 345
17 15 14 13 12 11 10 6 4 2 1 1 1 13 83 101 103 74 82 77 31 357 354 25 52 90 153 85 8 82 352 326 359 331 189 62 61 59 36 70 197 209 11 274 183 330 360
14 14 14 12 11 10 10 7 4 2 2 5 6 23 143 133 119 65 57 32 349 347 338 329 322 295 37 163 181 293 339 334 118 81 59 25 64 227 220 192 165 130 122 318 312 149 3
15 13 13 10 10 9 10 9 5 3 3 9 15 48 139 164 136 96 70 73 49 344 318 354 297 266 333 145 302 293 330 71 66 76 359 21 265 239 188 151 137 79 101 314 293 293 4
13 13 12 9 8 9 8 9 6 5 5 11 24 81 110 116 141 118 75 41 13 321 349 313 234 284 199 185 314 350 8 66 82 54 35 132 281 343 90 87 95 83 140 266 240 335 346
8 9 10 8 7 7 8 10 8 6 5 10 34 111 119 110 98 103 87 14 358 14 68 304 352 25 182 196 17 0 26 55 36 55 97 243 321 75 57 44 109 316 199 211 277 48 255
5 7 7 7 6 5 5 9 9 9 5 12 41 113 133 140 112 68 343 341 200 311 72 286 338 97 141 86 330 14 42 26 88 14 69 287 346 7 19 0 135 210 66 24 331 199 84
3 4 6 6 5 4 4 8 9 11 11 21 54 89 97 69 340 329 305 214 168 45 57 5 42 8 56 0 318 72 52 47 47 87 14 281 302 36 340 61 64 71 37 49 58 93 23
0 2 4 5 5 3 2 4 11 9 16 55 64 58 46 18 357 0 107 155 43 84 326 333 343 0 14 359 10 33 36 15 47 24 0 341 6 333 37 35 22 52 46 335 345 7 230
357 359 1 2 2 2 0 360 8 7 12 63 48 34 29 17 8 25 350 59 72 275 337 335 14 23 78 0 18 7 69 36 28 68 63 41 338 12 338 73 290 31 140 155 262 248 268
353 356 357 358 359 0 359 358 2 9 3 25 57 46 27 12 6 359 310 58 177 206 279 0 47 56 358 2 57 54 47 66 48 51 102 32 292 323 25 339 85 231 227 187 123 20 18
351 353 356 357 358 359 359 357 357 6 2 4 341 244 9 360 352 8 75 138 354 255 54 50 82 34 45 352 42 34 20 338 42 62 87 193 318 319 301 8 37 167 158 26 9 285 264
348 350 353 356 356 357 360 357 354 0 6 358 357 337 359 1 10 51 101 238 323 20 42 60 114 82 100 41 15 0 0 13 21 8 46 112 129 287 349 319 249 322 322 58 122 148 213
343 345 348 354 356 356 357 358 357 358 4 13 29 44 3 5 46 37 65 346 356 331 38 57 78 77 72 57 18 349 65 59 40 5 37 340 153 254 238 264 289 190 191 135 127 260 212
337 344 347 351 356 357 356 359 360 0 3 5 13 344 8 17 83 4 331 5 44 29 27 32 56 51 18 46 54 5 31 116 40 72 44 209 289 327 332 354 3 77 161 136 109 67 204
333 339 352 353 355 356 356 359 2 3 5 6 10 24 25 56 54 86 21 353 30 27 51 55 74 64 60 32 6 336 338 315 338 302 317 162 160 191 238 228 293 301 303 286 202 255 278
331 334 349 352 354 356 357 358 3 8 9 12 37 59 22 351 4 30 37 2 22 11 11 36 46 58 81 86 335 319 262 325 306 318 99 100 242 217 251 254 247 265 275 268 252 254 242
327 333 343 350 352 356 357 356 1 10 16 36 47 33 18 27 335 45 9 8 23 348 21 358 67 342 177 177 184 244 230 202 242 343 67 358 261 295 270 259 261 264 258 261 266 268 268
322 327 336 348 349 352 353 353 357 7 18 41 33 22 11 1 3 72 335 322 3 334 57 69 332 113 121 207 267 278 277 264 257 260 258 135 94 47 271 357 306 293 240 207 152 225 258
317 319 326 338 342 345 348 350 354 1 8 23 23 12 8 313 49 103 327 327 354 339 273 335 28 118 265 313 298 283 296 309 180 289 194 136 103 108 281 353 299 245 156 164 230 277 258
301 308 319 322 331 336 342 345 349 355 357 1 15 19 18 312 265 313 341 317 320 308 275 280 24 338 316 313 14 0 351 17 11 37 141 66 107 340 159 287 283 292 125 62 204 304 309
289 296 302 310 322 327 335 338 341 348 348 349 360 9 355 351 242 221 298 284 268 314 337 251 297 327 336 75 64 85 287 324 325 346 131 75 67 120 72 270 257 237 143 333 306 296 358
277 277 291 305 309 316 327 330 333 337 336 339 335 339 340 294 249 233 226 245 229 149 233 306 343 349 12 62 77 131 275 308 292 282 314 331 348 172 213 245 273 251 328 330 53 285 315
265 275 278 288 293 305 314 320 325 328 325 326 320 316 324 281 282 260 250 221 204 188 148 295 5 323 41 65 110 238 168 279 338 258 220 202 153 242 340 271 281 15 356 3 287 304 302
258 264 268 281 288 292 303 311 315 317 314 317 316 310 307 282 272 280 270 251 255 270 247 220 220 213 182 94 209 104 222 85 160 275 21 279 188 213 190 231 262 302 308 312 316 303 317